User: anonymous   Login
Location: Newark
(48.8833°N, 0.9236°W)
Time: 19:04:31
(UTC+00:00)
Language:

Transit 2A - Orbit

View from above orbital plane
View from above orbital plane
View from above satellite
View from above satellite

Ground track
Ground track

The orbit data is extracted from the following two-line orbital elements,

1    45U 60007A   19318.18747161 -.00000012  00000-0  23892-4 0  9991
2    45  66.6949 230.8045 0248736 113.7818 248.9579 14.33655305 91708
Epoch (UTC): 14 November 2019 04:29:57
Eccentricity: 0.0248736
inclination: 66.6949°
perigee height: 601 km
apogee height: 957 km
right ascension of ascending node: 230.8045°
argument of perigee: 113.7818°
revolutions per day: 14.33655305
mean anomaly at epoch: 248.9579°
orbit number at epoch: 9170

The dashed part of the orbit path shows where the satellite is in the earth's shadow,  

DLR